Stations météo

réclame
Mon MeteoGroup
Ronneby, Suède (2664): Température de l'air & dewpoint: 08.08.2018 15:00:00 - 14.08.2018 15:00:00 (CEST)Ronneby, Suède (2664): Vitesse du vent & gusts: 08.08.2018 15:00:00 - 14.08.2018 15:00:00 (CEST)Ronneby, Suède (2664): Direction du vent: 08.08.2018 15:00:00 - 14.08.2018 15:00:00 (CEST)Ronneby, Suède (2664): reduced air pressure: 08.08.2018 15:00:00 - 14.08.2018 15:00:00 (CEST)Ronneby, Suède (2664): visibility: 08.08.2018 15:00:00 - 14.08.2018 15:00:00 (CEST)Ronneby, Suède (2664): Quantités de précipitations: 08.08.2018 15:00:00 - 14.08.2018 15:00:00 (CEST)
Date & Time tt [°C] td [°C] ff [km/h] ff [knt] fx [km/h] fx [knt] dd ppp [hPa] vv [km] rr [mm]
14.08.2018 15:00:00 21,8 17,8 18 10 32 18 SW 1005,2 10 0,0
14.08.2018 14:00:00 23,0 18,4 21 11 29 16 SSW 1004,9 10 0,0
14.08.2018 13:00:00 23,3 18,6 15 8 25 14 SSW 1004,8 10 0,0
14.08.2018 12:00:00 21,6 18,2 9 5 22 12 ESE 1005,0 10 0,0
14.08.2018 11:00:00 20,1 18,2 16 9 29 16 E 1005,2 10 0,0
14.08.2018 10:00:00 19,4 17,7 18 10 32 18 E 1005,6 10 0,0
14.08.2018 09:00:00 19,0 17,5 16 9 29 16 E 1005,9 10 0,0
14.08.2018 08:00:00 17,9 17,4 16 9 25 14 E 1006,0 10 0,0
14.08.2018 07:00:00 17,3 17,0 13 7 25 14 E 1006,3 10 0,0
14.08.2018 06:00:00 17,2 16,9 18 10 25 14 ENE 1006,4 10 0,0
14.08.2018 05:00:00 16,9 16,7 15 8 25 14 E 1006,6 10 0,0
14.08.2018 04:00:00 16,5 16,3 15 8 22 12 E 1007,4 10 0,0
14.08.2018 03:00:00 16,3 16,1 15 8 22 12 E 1008,0 10 0,0
14.08.2018 02:00:00 15,9 15,7 11 6 18 10 NE 1008,4 10 0,2
14.08.2018 01:00:00 15,2 15,0 11 6 14 8 NNE 1009,2 10 0,2
14.08.2018 00:00:00 15,3 14,8 2 1 7 4 E 1009,5 10 0,0
13.08.2018 23:00:00 15,5 15,0 8 4 18 10 E 1009,3 10 0,0
13.08.2018 22:00:00 15,4 14,9 9 5 14 8 E 1009,3 10 0,0
13.08.2018 21:00:00 15,6 15,0 9 5 14 8 E 1009,8 10 0,0
13.08.2018 20:00:00 16,0 15,2 9 5 18 10 E 1009,7 10 0,0
13.08.2018 19:00:00 16,5 15,7 9 5 14 8 E 1009,8 10 0,0
13.08.2018 18:00:00 16,2 15,7 8 4 11 6 ENE 1010,0 10 0,0
13.08.2018 17:00:00 16,4 15,4 8 4 14 8 ESE 1010,6 10 0,0
13.08.2018 16:00:00 15,8 15,2 5 3 11 6 E 1010,8 10 0,0
13.08.2018 15:00:00 15,1 14,5 8 4 11 6 ESE 1010,8 10 0,1
13.08.2018 14:00:00 15,3 14,3 9 5 14 8 ESE 1011,0 10 0,0
13.08.2018 13:00:00 15,4 13,4 11 6 14 8 E 1011,0 10 0,1
13.08.2018 12:00:00 15,3 13,5 9 5 14 8 E 1011,1 10 0,0
13.08.2018 11:00:00 15,1 13,1 9 5 14 8 E 1011,0 10 0,0
13.08.2018 10:00:00 14,3 12,7 8 4 11 6 ENE 1010,9 10 0,0
13.08.2018 09:00:00 13,7 13,1 5 3 7 4 ENE 1011,0 10 0,0
13.08.2018 08:00:00 13,0 12,7 0 0 4 2 N 1010,9 10 0,4
13.08.2018 07:00:00 12,3 12,1 4 2 4 2 ENE 1010,9 10 0,7
13.08.2018 06:00:00 11,8 11,6 0 0 4 2 N 1011,2 10 0,4
13.08.2018 05:00:00 11,8 11,6 0 0 4 2 N 1011,3 10 0,0
13.08.2018 04:00:00 11,9 11,7 2 1 4 2 S 1011,4 10 0,0
13.08.2018 03:00:00 12,0 11,7 2 1 7 4 W 1011,7 10 0,0
13.08.2018 02:00:00 12,1 11,8 4 2 7 4 WSW 1011,9 10 0,0
13.08.2018 01:00:00 12,2 11,7 5 3 11 6 W 1012,1 10 0,0
13.08.2018 00:00:00 12,7 12,2 5 3 11 6 W 1012,2 10 0,0
12.08.2018 23:00:00 13,2 12,6 8 4 14 8 WSW 1012,4 10 0,0
12.08.2018 22:00:00 13,4 12,5 13 7 18 10 WSW 1012,6 10 0,0
12.08.2018 21:00:00 13,7 11,9 9 5 18 10 WSW 1012,9 10 0,2
12.08.2018 20:00:00 14,8 11,8 13 7 25 14 WSW 1012,6 10 0,1
12.08.2018 19:00:00 16,7 10,3 16 9 25 14 WSW 1012,4 10 0,0
12.08.2018 18:00:00 17,6 10,2 16 9 32 18 W 1012,2 10 0,0
12.08.2018 17:00:00 19,0 9,5 24 13 40 21 W 1012,0 10 0,0
12.08.2018 16:00:00 19,9 8,9 29 16 50 27 W 1011,8 10 0,0
12.08.2018 15:00:00 19,2 9,1 29 16 47 25 W 1012,1 10 0,0
12.08.2018 14:00:00 19,5 9,1 28 15 50 27 W 1012,1 10 0,0
12.08.2018 13:00:00 17,3 11,1 21 11 40 21 WNW 1012,2 10 0,0
12.08.2018 12:00:00 17,2 11,0 21 11 43 23 W 1012,4 10 0,0
12.08.2018 11:00:00 16,5 11,6 24 13 40 21 W 1012,0 10 0,3
12.08.2018 10:00:00 16,4 12,4 22 12 40 21 W 1012,0 10 0,0
12.08.2018 09:00:00 15,3 12,4 21 11 40 21 W 1011,9 10 0,0
12.08.2018 08:00:00 14,0 12,2 16 9 29 16 W 1011,8 10 0,0
12.08.2018 07:00:00 12,9 12,0 13 7 25 14 W 1011,4 10 0,0
12.08.2018 06:00:00 12,2 11,7 15 8 25 14 W 1010,9 10 0,0
12.08.2018 05:00:00 11,8 11,3 15 8 25 14 WSW 1010,6 10 0,0
12.08.2018 04:00:00 12,1 11,3 13 7 22 12 W 1010,4 10 0,0
12.08.2018 03:00:00 12,2 11,7 15 8 25 14 W 1010,1 10 0,6
12.08.2018 02:00:00 12,1 11,3 15 8 22 12 W 1010,1 10 0,0
12.08.2018 01:00:00 12,4 11,0 9 5 14 8 WSW 1010,3 10 0,1
12.08.2018 00:00:00 11,6 10,3 4 2 11 6 W 1010,5 10 0,0
11.08.2018 23:00:00 12,6 11,0 5 3 11 6 W 1010,5 10 0,0
11.08.2018 22:00:00 12,5 10,2 2 1 7 4 S 1010,4 10 0,0
11.08.2018 21:00:00 14,3 10,1 4 2 22 12 - 1010,9 10 0,0
11.08.2018 20:00:00 16,6 10,4 15 8 32 18 SW 1011,2 10 0,0
11.08.2018 19:00:00 17,9 12,1 21 11 32 18 SW 1011,6 10 0,0
11.08.2018 18:00:00 18,3 11,6 24 13 40 21 SW 1012,1 10 0,0
11.08.2018 17:00:00 19,3 10,6 24 13 40 21 SW 1012,5 10 0,0
11.08.2018 16:00:00 19,9 14,0 24 13 40 21 SW 1012,4 10 0,0
11.08.2018 15:00:00 20,5 16,3 16 9 40 21 S 1012,9 10 0,2
11.08.2018 14:00:00 16,7 14,0 28 15 43 23 SSE 1014,3 10 4,0
11.08.2018 13:00:00 21,7 13,1 24 13 40 21 S 1014,6 10 0,0
11.08.2018 12:00:00 22,1 12,9 22 12 40 21 S 1015,6 10 0,0
11.08.2018 11:00:00 21,5 14,9 34 18 43 23 S 1016,2 10 0,0
11.08.2018 10:00:00 21,5 15,8 22 12 40 21 S 1016,8 10 0,0
11.08.2018 09:00:00 20,8 15,6 16 9 32 18 S 1017,3 10 0,0
11.08.2018 08:00:00 18,1 13,4 4 2 7 4 - 1018,0 10 0,0
11.08.2018 07:00:00 12,9 11,8 5 3 7 4 NNE 1018,6 10 0,0
11.08.2018 06:00:00 10,0 9,4 4 2 7 4 E 1019,0 10 0,0
11.08.2018 05:00:00 10,1 9,6 2 1 4 2 ENE 1019,2 10 0,0
11.08.2018 04:00:00 10,6 10,1 4 2 4 2 NE 1019,3 10 0,0
11.08.2018 03:00:00 13,8 10,6 5 3 11 6 WSW 1019,6 10 0,0
11.08.2018 02:00:00 14,3 10,5 4 2 11 6 SW 1019,7 10 0,0
11.08.2018 01:00:00 15,0 10,0 4 2 14 8 SW 1020,0 10 0,0
11.08.2018 00:00:00 17,0 10,6 11 6 18 10 WSW 1019,7 10 0,0
10.08.2018 23:00:00 17,4 11,4 9 5 18 10 SW 1019,3 10 0,0
10.08.2018 22:00:00 14,6 9,4 4 2 7 4 SSW 1019,1 10 0,0
10.08.2018 21:00:00 18,3 9,9 9 5 25 14 W 1018,5 10 0,0
10.08.2018 20:00:00 20,0 9,8 16 9 36 19 W 1017,8 10 0,0
10.08.2018 19:00:00 21,2 9,8 18 10 36 19 W 1017,0 10 0,0
10.08.2018 18:00:00 22,1 9,9 29 16 40 21 WSW 1016,8 10 0,0
10.08.2018 17:00:00 22,8 11,5 26 14 40 21 WSW 1015,8 10 0,0
10.08.2018 16:00:00 22,6 12,7 28 15 43 23 W 1015,3 10 0,0
10.08.2018 15:00:00 23,5 13,4 24 13 47 25 SW 1014,5 10 0,0
10.08.2018 14:00:00 22,5 16,1 21 11 40 21 SW 1014,2 10 0,0
10.08.2018 13:00:00 22,5 15,8 24 13 43 23 SW 1013,4 10 0,0
10.08.2018 12:00:00 22,2 16,2 26 14 43 23 SW 1012,9 10 0,0
10.08.2018 11:00:00 22,0 15,6 24 13 43 23 SW 1011,9 10 0,0
10.08.2018 10:00:00 21,3 16,3 26 14 43 23 WSW 1011,3 10 0,0
10.08.2018 09:00:00 21,4 17,8 24 13 40 21 SW 1010,4 10 0,0
10.08.2018 08:00:00 21,9 20,0 18 10 32 18 SSW 1009,8 10 0,0
10.08.2018 07:00:00 21,1 20,4 13 7 22 12 S 1009,3 10 0,0
10.08.2018 06:00:00 20,0 20,0 11 6 - - S - 8 -
10.08.2018 05:00:00 20,3 20,1 2 1 18 10 - 1008,3 9 0,0
10.08.2018 04:00:00 20,2 20,0 5 3 18 10 ENE 1009,2 10 0,0
10.08.2018 03:00:00 21,9 20,4 28 15 50 27 SSW 1009,2 10 0,9
10.08.2018 02:00:00 22,1 18,7 18 10 25 14 E 1008,8 10 0,0
10.08.2018 01:00:00 21,3 17,1 16 9 25 14 E 1010,1 10 0,0
10.08.2018 00:00:00 21,3 16,0 15 8 25 14 E 1011,0 10 0,0
09.08.2018 23:00:00 20,0 16,6 9 5 14 8 E 1012,8 10 0,0
09.08.2018 22:00:00 20,2 17,4 9 5 11 6 ESE 1013,3 10 0,0
09.08.2018 21:00:00 21,1 17,7 5 3 14 8 SSE 1013,7 10 0,0
09.08.2018 20:00:00 23,7 16,7 8 4 14 8 SSE 1013,9 10 0,0
09.08.2018 19:00:00 25,0 17,0 9 5 18 10 S 1014,3 10 0,0
09.08.2018 18:00:00 26,5 17,3 11 6 18 10 S 1014,7 10 0,0
09.08.2018 17:00:00 26,7 17,2 15 8 22 12 SSW 1014,9 10 0,0
09.08.2018 16:00:00 27,3 17,5 16 9 22 12 S 1015,3 10 0,0
09.08.2018 15:00:00 27,2 17,4 9 5 29 16 SSW 1015,4 10 0,0
09.08.2018 14:00:00 26,7 17,2 8 4 22 12 - 1015,7 10 0,0
09.08.2018 13:00:00 25,7 17,6 13 7 22 12 W 1016,0 10 0,0
09.08.2018 12:00:00 24,6 18,5 8 4 22 12 WSW 1016,1 10 0,0
09.08.2018 11:00:00 22,8 19,6 5 3 18 10 - 1016,4 10 0,0
09.08.2018 10:00:00 20,5 19,3 8 4 18 10 WNW 1016,3 10 0,0
09.08.2018 09:00:00 20,7 20,0 9 5 18 10 W 1015,5 10 0,0
09.08.2018 08:00:00 20,1 19,9 8 4 14 8 WSW 1015,3 9 0,0
09.08.2018 07:00:00 19,4 19,4 2 1 11 6 - 1014,8 10 0,0
09.08.2018 06:00:00 18,8 18,8 4 2 4 2 WNW 1014,1 5 0,0
09.08.2018 05:00:00 19,3 19,3 2 1 11 6 - 1013,8 5 0,9
09.08.2018 04:00:00 20,0 19,7 5 3 14 8 NW 1013,5 10 6,0
09.08.2018 03:00:00 20,2 19,5 9 5 14 8 W 1012,9 10 0,5
09.08.2018 02:00:00 20,0 19,5 0 0 4 2 N 1012,4 10 0,0
09.08.2018 01:00:00 21,0 19,8 4 2 7 4 SSW 1012,1 10 0,0
09.08.2018 00:00:00 21,4 19,3 4 2 11 6 E 1011,8 10 0,0
08.08.2018 23:00:00 21,0 20,3 9 5 11 6 NNE 1011,3 10 0,0
08.08.2018 22:00:00 22,9 19,5 0 0 32 18 N 1011,6 10 0,2
08.08.2018 21:00:00 26,1 19,0 11 6 32 18 SSE 1011,8 10 0,0
08.08.2018 20:00:00 26,5 18,9 13 7 25 14 SE 1010,1 10 0,0
08.08.2018 19:00:00 27,6 19,1 16 9 29 16 SE 1010,2 10 0,0
08.08.2018 18:00:00 27,6 18,6 18 10 29 16 SE 1010,3 10 0,0
08.08.2018 17:00:00 27,1 17,8 18 10 29 16 SE 1010,9 10 0,0
08.08.2018 16:00:00 26,5 17,6 18 10 32 18 SE 1010,9 10 0,0
08.08.2018 15:00:00 27,2 17,7 22 12 32 18 SSE 1011,1 10 0,0

tt = Température de l'air
td = dewpoint
ff = Vitesse du vent
fx = gusts
dd = Direction du vent
ppp = reduced air pressure
vv = visibility
rr = Quantités de précipitations

stations d'obs. à proximité